Year,Month,Day,Hour,Minute,Value (Times are PST for barometer in hPa)
2013,04,23,00,00,1030.07
2013,04,23,00,01,1030.07
2013,04,23,00,02,1030.11
2013,04,23,00,03,1030.10
2013,04,23,00,04,1030.00
2013,04,23,00,05,1030.00
2013,04,23,00,06,1029.97
2013,04,23,00,07,1030.04
2013,04,23,00,08,1030.04
2013,04,23,00,09,1030.00
2013,04,23,00,10,1030.00
2013,04,23,00,11,1029.97
2013,04,23,00,12,1030.00
2013,04,23,00,13,1029.97
2013,04,23,00,14,1029.94
2013,04,23,00,15,1029.97
2013,04,23,00,16,1029.94
2013,04,23,00,17,1029.97
2013,04,23,00,18,1029.94
2013,04,23,00,19,1029.90
2013,04,23,00,20,1029.87
2013,04,23,00,21,1029.84
2013,04,23,00,22,1029.80
2013,04,23,00,23,1029.84
2013,04,23,00,24,1029.87
2013,04,23,00,25,1029.84
2013,04,23,00,26,1029.80
2013,04,23,00,27,1029.77
2013,04,23,00,28,1029.77
2013,04,23,00,29,1029.77
2013,04,23,00,30,1029.77
2013,04,23,00,31,1029.80
2013,04,23,00,32,1029.77
2013,04,23,00,33,1029.77
2013,04,23,00,34,1029.70
2013,04,23,00,35,1029.77
2013,04,23,00,36,1029.77
2013,04,23,00,37,1029.73
2013,04,23,00,38,1029.73
2013,04,23,00,39,1029.77
2013,04,23,00,40,1029.77
2013,04,23,00,41,1029.77
2013,04,23,00,42,1029.77
2013,04,23,00,43,1029.77
2013,04,23,00,44,1029.73
2013,04,23,00,45,1029.70
2013,04,23,00,46,1029.73
2013,04,23,00,47,1029.70
2013,04,23,00,48,1029.77
2013,04,23,00,49,1029.77
2013,04,23,00,50,1029.77
2013,04,23,00,51,1029.73
2013,04,23,00,52,1029.80
2013,04,23,00,53,1029.73
2013,04,23,00,54,1029.77
2013,04,23,00,55,1029.73
2013,04,23,00,56,1029.84
2013,04,23,00,57,1029.80
2013,04,23,00,58,1029.77
2013,04,23,00,59,1029.77
2013,04,23,01,00,1029.80
2013,04,23,01,01,1029.77
2013,04,23,01,02,1029.77
2013,04,23,01,03,1029.84
2013,04,23,01,04,1029.77
2013,04,23,01,05,1029.80
2013,04,23,01,06,1029.80
2013,04,23,01,07,1029.77
2013,04,23,01,08,1029.77
2013,04,23,01,09,1029.77
2013,04,23,01,10,1029.73
2013,04,23,01,11,1029.73
2013,04,23,01,12,1029.73
2013,04,23,01,13,1029.70
2013,04,23,01,14,1029.77
2013,04,23,01,15,1029.73
2013,04,23,01,16,1029.70
2013,04,23,01,17,1029.73
2013,04,23,01,18,1029.73
2013,04,23,01,19,1029.73
2013,04,23,01,20,1029.77
2013,04,23,01,21,1029.77
2013,04,23,01,22,1029.73
2013,04,23,01,23,1029.70
2013,04,23,01,24,1029.70
2013,04,23,01,25,1029.70
2013,04,23,01,26,1029.67
2013,04,23,01,27,1029.70
2013,04,23,01,28,1029.60
2013,04,23,01,29,1029.63
2013,04,23,01,30,1029.60
2013,04,23,01,31,1029.53
2013,04,23,01,32,1029.56
2013,04,23,01,33,1029.46
2013,04,23,01,34,1029.46
2013,04,23,01,35,1029.46
2013,04,23,01,36,1029.46
2013,04,23,01,37,1029.46
2013,04,23,01,38,1029.43
2013,04,23,01,39,1029.43
2013,04,23,01,40,1029.39
2013,04,23,01,41,1029.39
2013,04,23,01,42,1029.46
2013,04,23,01,43,1029.46
2013,04,23,01,44,1029.39
2013,04,23,01,45,1029.46
2013,04,23,01,46,1029.36
2013,04,23,01,47,1029.36
2013,04,23,01,48,1029.33
2013,04,23,01,49,1029.29
2013,04,23,01,50,1029.26
2013,04,23,01,51,1029.26
2013,04,23,01,52,1029.26
2013,04,23,01,53,1029.29
2013,04,23,01,54,1029.26
2013,04,23,01,55,1029.26
2013,04,23,01,56,1029.23
2013,04,23,01,57,1029.23
2013,04,23,01,58,1029.19
2013,04,23,01,59,1029.16
2013,04,23,02,00,1029.16
2013,04,23,02,01,1029.16
2013,04,23,02,02,1029.16
2013,04,23,02,03,1029.16
2013,04,23,02,04,1029.12
2013,04,23,02,05,1029.09
2013,04,23,02,06,1029.09
2013,04,23,02,07,1029.09
2013,04,23,02,08,1029.12
2013,04,23,02,09,1029.09
2013,04,23,02,10,1029.02
2013,04,23,02,11,1029.02
2013,04,23,02,12,1029.02
2013,04,23,02,13,1029.02
2013,04,23,02,14,1029.02
2013,04,23,02,15,1028.99
2013,04,23,02,16,1029.02
2013,04,23,02,17,1028.99
2013,04,23,02,18,1028.92
2013,04,23,02,19,1028.92
2013,04,23,02,20,1028.92
2013,04,23,02,21,1028.99
2013,04,23,02,22,1028.85
2013,04,23,02,23,1028.89
2013,04,23,02,24,1028.89
2013,04,23,02,25,1028.92
2013,04,23,02,26,1028.90
2013,04,23,02,27,1028.99
2013,04,23,02,28,1028.92
2013,04,23,02,29,1028.89
2013,04,23,02,30,1028.92
2013,04,23,02,31,1028.85
2013,04,23,02,32,1028.89
2013,04,23,02,33,1028.85
2013,04,23,02,34,1028.82
2013,04,23,02,35,1028.82
2013,04,23,02,36,1028.82
2013,04,23,02,37,1028.82
2013,04,23,02,38,1028.79
2013,04,23,02,39,1028.79
2013,04,23,02,40,1028.79
2013,04,23,02,41,1028.79
2013,04,23,02,42,1028.75
2013,04,23,02,43,1028.75
2013,04,23,02,44,1028.75
2013,04,23,02,45,1028.72
2013,04,23,02,46,1028.72
2013,04,23,02,47,1028.72
2013,04,23,02,48,1028.68
2013,04,23,02,49,1028.68
2013,04,23,02,50,1028.65
2013,04,23,02,51,1028.65
2013,04,23,02,52,1028.62
2013,04,23,02,53,1028.65
2013,04,23,02,54,1028.62
2013,04,23,02,55,1028.58
2013,04,23,02,56,1028.58
2013,04,23,02,57,1028.58
2013,04,23,02,58,1028.55
2013,04,23,02,59,1028.62
2013,04,23,03,00,1028.58
2013,04,23,03,01,1028.55
2013,04,23,03,02,1028.48
2013,04,23,03,03,1028.51
2013,04,23,03,04,1028.48
2013,04,23,03,05,1028.48
2013,04,23,03,06,1028.58
2013,04,23,03,07,1028.55
2013,04,23,03,08,1028.58
2013,04,23,03,09,1028.55
2013,04,23,03,10,1028.57
2013,04,23,03,11,1028.48
2013,04,23,03,12,1028.51
2013,04,23,03,13,1028.48
2013,04,23,03,14,1028.45
2013,04,23,03,15,1028.41
2013,04,23,03,16,1028.45
2013,04,23,03,17,1028.41
2013,04,23,03,18,1028.48
2013,04,23,03,19,1028.45
2013,04,23,03,20,1028.45
2013,04,23,03,21,1028.38
2013,04,23,03,22,1028.41
2013,04,23,03,23,1028.38
2013,04,23,03,24,1028.41
2013,04,23,03,25,1028.38
2013,04,23,03,26,1028.41
2013,04,23,03,27,1028.38
2013,04,23,03,28,1028.38
2013,04,23,03,29,1028.35
2013,04,23,03,30,1028.45
2013,04,23,03,31,1028.38
2013,04,23,03,32,1028.38
2013,04,23,03,33,1028.41
2013,04,23,03,34,1028.35
2013,04,23,03,35,1028.31
2013,04,23,03,36,1028.38
2013,04,23,03,37,1028.38
2013,04,23,03,38,1028.41
2013,04,23,03,39,1028.38
2013,04,23,03,40,1028.38
2013,04,23,03,41,1028.38
2013,04,23,03,42,1028.31
2013,04,23,03,43,1028.38
2013,04,23,03,44,1028.38
2013,04,23,03,45,1028.45
2013,04,23,03,46,1028.45
2013,04,23,03,47,1028.35
2013,04,23,03,48,1028.41
2013,04,23,03,49,1028.35
2013,04,23,03,50,1028.28
2013,04,23,03,51,1028.24
2013,04,23,03,52,1028.31
2013,04,23,03,53,1028.28
2013,04,23,03,54,1028.21
2013,04,23,03,55,1028.21
2013,04,23,03,56,1028.18
2013,04,23,03,57,1028.18
2013,04,23,03,58,1028.18
2013,04,23,03,59,1028.21
2013,04,23,04,00,1028.18
2013,04,23,04,01,1028.18
2013,04,23,04,02,1028.14
2013,04,23,04,03,1028.11
2013,04,23,04,04,1028.07
2013,04,23,04,05,1028.07
2013,04,23,04,06,1028.04
2013,04,23,04,07,1028.04
2013,04,23,04,08,1028.01
2013,04,23,04,09,1028.01
2013,04,23,04,10,1027.97
2013,04,23,04,11,1027.97
2013,04,23,04,12,1027.97
2013,04,23,04,13,1027.97
2013,04,23,04,14,1027.94
2013,04,23,04,15,1027.90
2013,04,23,04,16,1027.90
2013,04,23,04,17,1027.90
2013,04,23,04,18,1027.87
2013,04,23,04,19,1027.87
2013,04,23,04,20,1027.90
2013,04,23,04,21,1027.94
2013,04,23,04,22,1027.94
2013,04,23,04,23,1027.97
2013,04,23,04,24,1027.94
2013,04,23,04,25,1028.01
2013,04,23,04,26,1027.97
2013,04,23,04,27,1027.97
2013,04,23,04,28,1027.97
2013,04,23,04,29,1028.07
2013,04,23,04,30,1028.07
2013,04,23,04,31,1028.04
2013,04,23,04,32,1028.04
2013,04,23,04,33,1028.01
2013,04,23,04,34,1028.04
2013,04,23,04,35,1028.01
2013,04,23,04,36,1028.01
2013,04,23,04,37,1028.01
2013,04,23,04,38,1027.97
2013,04,23,04,39,1027.97
2013,04,23,04,40,1027.94
2013,04,23,04,41,1027.94
2013,04,23,04,42,1027.90
2013,04,23,04,43,1027.90
2013,04,23,04,44,1027.84
2013,04,23,04,45,1027.80
2013,04,23,04,46,1027.74
2013,04,23,04,47,1027.74
2013,04,23,04,48,1027.70
2013,04,23,04,49,1027.67
2013,04,23,04,50,1027.70
2013,04,23,04,51,1027.70
2013,04,23,04,52,1027.70
2013,04,23,04,53,1027.67
2013,04,23,11,20,1026.52
2013,04,23,11,21,1026.48
2013,04,23,11,22,1026.52
2013,04,23,11,23,1026.55
2013,04,23,11,24,1026.52
2013,04,23,11,25,1026.52
2013,04,23,11,26,1026.55
2013,04,23,11,27,1026.55
2013,04,23,11,28,1026.58
2013,04,23,11,29,1026.69
2013,04,23,11,30,1026.72
2013,04,23,11,31,1026.69
2013,04,23,11,32,1026.65
2013,04,23,11,33,1026.69
2013,04,23,11,34,1026.72
2013,04,23,11,35,1026.72
2013,04,23,11,36,1026.69
2013,04,23,11,37,1026.69
2013,04,23,11,38,1026.62
2013,04,23,11,39,1026.58
2013,04,23,11,40,1026.58
2013,04,23,11,41,1026.58
2013,04,23,11,42,1026.58
2013,04,23,11,43,1026.52
2013,04,23,11,44,1026.55
2013,04,23,11,45,1026.58
2013,04,23,11,46,1026.52
2013,04,23,11,47,1026.48
2013,04,23,11,48,1026.48
2013,04,23,11,49,1026.45
2013,04,23,11,50,1026.48
2013,04,23,11,51,1026.48
2013,04,23,11,52,1026.52
2013,04,23,11,53,1026.55
2013,04,23,11,54,1026.55
2013,04,23,11,55,1026.55
2013,04,23,11,56,1026.62
2013,04,23,11,57,1026.55
2013,04,23,11,58,1026.55
2013,04,23,11,59,1026.58
2013,04,23,12,00,1026.55
2013,04,23,12,01,1026.55
2013,04,23,12,02,1026.52
2013,04,23,12,03,1026.58
2013,04,23,12,04,1026.58
2013,04,23,12,05,1026.55
2013,04,23,12,06,1026.48
2013,04,23,12,07,1026.48
2013,04,23,12,08,1026.52
2013,04,23,12,09,1026.58
2013,04,23,12,10,1026.62
2013,04,23,12,11,1026.58
2013,04,23,12,12,1026.55
2013,04,23,12,13,1026.58
2013,04,23,12,14,1026.58
2013,04,23,12,15,1026.58
2013,04,23,12,16,1026.52
2013,04,23,12,17,1026.52
2013,04,23,12,18,1026.52
2013,04,23,12,19,1026.48
2013,04,23,12,20,1026.48
2013,04,23,12,21,1026.48
2013,04,23,12,22,1026.45
2013,04,23,12,23,1026.52
2013,04,23,12,24,1026.45
2013,04,23,12,25,1026.45
2013,04,23,12,26,1026.45
2013,04,23,12,27,1026.35
2013,04,23,12,28,1026.45
2013,04,23,12,29,1026.35
2013,04,23,12,30,1026.41
2013,04,23,12,31,1026.41
2013,04,23,12,32,1026.32
2013,04,23,12,33,1026.45
2013,04,23,12,34,1026.31
2013,04,23,12,35,1026.28
2013,04,23,12,36,1026.28
2013,04,23,12,37,1026.25
2013,04,23,12,38,1026.31
2013,04,23,12,39,1026.31
2013,04,23,12,40,1026.38
2013,04,23,12,41,1026.35
2013,04,23,12,42,1026.35
2013,04,23,12,43,1026.31
2013,04,23,12,44,1026.25
2013,04,23,12,45,1026.31
2013,04,23,12,46,1026.31
2013,04,23,12,47,1026.25
2013,04,23,12,48,1026.18
2013,04,23,12,49,1026.21
2013,04,23,12,50,1026.18
2013,04,23,12,51,1026.25
2013,04,23,12,52,1026.25
2013,04,23,12,53,1026.28
2013,04,23,12,54,1026.21
2013,04,23,12,55,1026.25
2013,04,23,12,56,1026.28
2013,04,23,12,57,1026.28
2013,04,23,12,58,1026.21
2013,04,23,12,59,1026.25
2013,04,23,13,00,1026.21
2013,04,23,13,01,1026.14
2013,04,23,13,02,1026.18
2013,04,23,13,03,1026.18
2013,04,23,13,04,1026.14
2013,04,23,13,05,1026.18
2013,04,23,13,06,1026.11
2013,04,23,13,07,1026.14
2013,04,23,13,08,1026.14
2013,04,23,13,09,1026.14
2013,04,23,13,10,1026.21
2013,04,23,13,11,1026.14
2013,04,23,13,12,1026.11
2013,04,23,13,13,1026.11
2013,04,23,13,14,1026.08
2013,04,23,13,15,1026.04
2013,04,23,13,16,1026.04
2013,04,23,13,17,1026.08
2013,04,23,13,18,1025.97
2013,04,23,13,19,1026.08
2013,04,23,13,20,1026.11
2013,04,23,13,21,1026.04
2013,04,23,13,22,1025.97
2013,04,23,13,23,1025.94
2013,04,23,13,24,1025.91
2013,04,23,13,25,1025.94
2013,04,23,13,26,1025.97
2013,04,23,13,27,1025.94
2013,04,23,13,28,1025.97
2013,04,23,13,29,1025.97
2013,04,23,13,30,1025.94
2013,04,23,13,31,1025.97
2013,04,23,13,32,1025.97
2013,04,23,13,33,1026.01
2013,04,23,13,34,1026.01
2013,04,23,13,35,1026.01
2013,04,23,13,36,1026.01
2013,04,23,13,37,1026.01
2013,04,23,13,38,1026.01
2013,04,23,13,39,1026.04
2013,04,23,13,40,1026.04
2013,04,23,13,41,1026.04
2013,04,23,13,42,1026.01
2013,04,23,13,43,1026.04
2013,04,23,13,44,1026.04
2013,04,23,13,45,1026.01
2013,04,23,13,46,1026.01
2013,04,23,13,47,1026.01
2013,04,23,13,48,1025.97
2013,04,23,13,49,1026.01
2013,04,23,13,50,1026.01
2013,04,23,13,51,1026.04
2013,04,23,13,52,1026.01
2013,04,23,13,53,1026.01
2013,04,23,13,54,1026.04
2013,04,23,13,55,1026.11
2013,04,23,13,56,1026.08
2013,04,23,13,57,1026.08
2013,04,23,13,58,1026.11
2013,04,23,13,59,1026.11
2013,04,23,14,00,1026.08
2013,04,23,14,01,1026.08
2013,04,23,14,02,1026.14
2013,04,23,14,03,1026.11
2013,04,23,14,04,1026.11
2013,04,23,14,05,1026.11
2013,04,23,14,06,1026.14
2013,04,23,14,07,1026.11
2013,04,23,14,08,1026.08
2013,04,23,14,09,1026.11
2013,04,23,14,10,1026.11
2013,04,23,14,11,1026.01
2013,04,23,14,12,1026.08
2013,04,23,14,13,1026.04
2013,04,23,14,14,1026.04
2013,04,23,14,15,1025.97
2013,04,23,14,16,1026.01
2013,04,23,14,17,1026.01
2013,04,23,14,18,1026.08
2013,04,23,14,19,1026.01
2013,04,23,14,20,1026.08
2013,04,23,14,21,1026.01
2013,04,23,14,22,1026.08
2013,04,23,14,23,1026.11
2013,04,23,14,24,1026.01
2013,04,23,14,25,1026.01
2013,04,23,14,26,1026.01
2013,04,23,14,27,1026.08
2013,04,23,14,28,1026.04
2013,04,23,14,29,1026.04
2013,04,23,14,30,1026.01
2013,04,23,14,31,1025.97
2013,04,23,14,32,1026.10
2013,04,23,14,33,1026.01
2013,04,23,14,34,1026.01
2013,04,23,14,35,1026.04
2013,04,23,14,36,1025.97
2013,04,23,14,37,1026.04
2013,04,23,14,38,1026.04
2013,04,23,14,39,1026.01
2013,04,23,14,40,1026.04
2013,04,23,14,41,1025.97
2013,04,23,14,42,1026.01
2013,04,23,14,43,1025.97
2013,04,23,14,44,1026.01
2013,04,23,14,45,1026.01
2013,04,23,14,46,1025.97
2013,04,23,14,47,1025.84
2013,04,23,14,48,1025.84
2013,04,23,14,49,1025.84
2013,04,23,14,50,1025.81
2013,04,23,14,51,1025.81
2013,04,23,14,52,1025.81
2013,04,23,14,53,1025.84
2013,04,23,14,54,1025.81
2013,04,23,14,55,1025.77
2013,04,23,14,56,1025.81
2013,04,23,14,57,1025.84
2013,04,23,14,58,1025.87
2013,04,23,14,59,1025.87
2013,04,23,15,00,1025.81
2013,04,23,15,01,1025.74
2013,04,23,15,02,1025.70
2013,04,23,15,03,1025.74
2013,04,23,15,04,1025.77
2013,04,23,15,05,1025.81
2013,04,23,15,06,1025.81
2013,04,23,15,07,1025.84
2013,04,23,15,08,1025.77
2013,04,23,15,09,1025.74
2013,04,23,15,10,1025.81
2013,04,23,15,11,1025.74
2013,04,23,15,12,1025.75
2013,04,23,15,13,1025.87
2013,04,23,15,14,1025.84
2013,04,23,15,15,1025.77
2013,04,23,15,16,1025.74
2013,04,23,15,17,1025.70
2013,04,23,15,18,1025.74
2013,04,23,15,19,1025.77
2013,04,23,15,20,1025.81
2013,04,23,15,21,1025.74
2013,04,23,15,22,1025.77
2013,04,23,15,23,1025.74
2013,04,23,15,24,1025.74
2013,04,23,15,25,1025.81
2013,04,23,15,26,1025.84
2013,04,23,15,27,1025.91
2013,04,23,15,28,1025.81
2013,04,23,15,29,1025.81
2013,04,23,15,30,1025.81
2013,04,23,15,31,1025.77
2013,04,23,15,32,1025.74
2013,04,23,15,33,1025.74
2013,04,23,15,34,1025.77
2013,04,23,15,35,1025.84
2013,04,23,15,36,1025.91
2013,04,23,15,37,1025.77
2013,04,23,15,38,1025.84
2013,04,23,15,39,1025.81
2013,04,23,15,40,1025.70
2013,04,23,15,41,1025.70
2013,04,23,15,42,1025.70
2013,04,23,15,43,1025.67
2013,04,23,15,44,1025.67
2013,04,23,15,45,1025.64
2013,04,23,15,46,1025.67
2013,04,23,15,47,1025.64
2013,04,23,15,48,1025.57
2013,04,23,15,49,1025.60
2013,04,23,15,50,1025.57
2013,04,23,15,51,1025.64
2013,04,23,15,52,1025.53
2013,04,23,15,53,1025.53
2013,04,23,15,54,1025.50
2013,04,23,15,55,1025.53
2013,04,23,15,56,1025.40
2013,04,23,15,57,1025.40
2013,04,23,15,58,1025.37
2013,04,23,15,59,1025.40
2013,04,23,16,00,1025.40
2013,04,23,16,01,1025.43
2013,04,23,16,02,1025.40
2013,04,23,16,03,1025.40
2013,04,23,16,04,1025.37
2013,04,23,16,05,1025.33
2013,04,23,16,06,1025.26
2013,04,23,16,07,1025.26
2013,04,23,16,08,1025.26
2013,04,23,16,09,1025.23
2013,04,23,16,10,1025.26
2013,04,23,16,11,1025.20
2013,04,23,16,12,1025.20
2013,04,23,16,13,1025.20
2013,04,23,16,14,1025.23
2013,04,23,16,15,1025.23
2013,04,23,16,16,1025.26
2013,04,23,16,17,1025.20
2013,04,23,16,18,1025.20
2013,04,23,16,19,1025.20
2013,04,23,16,20,1025.20
2013,04,23,16,21,1025.20
2013,04,23,16,22,1025.26
2013,04,23,16,23,1025.16
2013,04,23,16,24,1025.20
2013,04,23,16,25,1025.16
2013,04,23,16,26,1025.20
2013,04,23,16,27,1025.26
2013,04,23,16,28,1025.33
2013,04,23,16,29,1025.33
2013,04,23,16,30,1025.30
2013,04,23,16,31,1025.30
2013,04,23,16,32,1025.30
2013,04,23,16,33,1025.26
2013,04,23,16,34,1025.30
2013,04,23,16,35,1025.33
2013,04,23,16,36,1025.23
2013,04,23,16,37,1025.23
2013,04,23,16,38,1025.23
2013,04,23,16,39,1025.23
2013,04,23,16,40,1025.13
2013,04,23,16,41,1025.20
2013,04,23,16,42,1025.23
2013,04,23,16,43,1025.23
2013,04,23,16,44,1025.16
2013,04,23,16,45,1025.23
2013,04,23,16,46,1025.20
2013,04,23,16,47,1025.16
2013,04,23,16,48,1025.13
2013,04,23,16,49,1025.20
2013,04,23,16,50,1025.20
2013,04,23,16,51,1025.20
2013,04,23,16,52,1025.16
2013,04,23,16,53,1025.20
2013,04,23,16,54,1025.20
2013,04,23,16,55,1025.20
2013,04,23,16,56,1025.23
2013,04,23,16,57,1025.26
2013,04,23,16,58,1025.20
2013,04,23,16,59,1025.16
2013,04,23,17,00,1025.23
2013,04,23,17,01,1025.23
2013,04,23,17,02,1025.26
2013,04,23,17,03,1025.30
2013,04,23,17,04,1025.30
2013,04,23,17,05,1025.23
2013,04,23,17,06,1025.13
2013,04,23,17,07,1025.16
2013,04,23,17,08,1025.16
2013,04,23,17,09,1025.16
2013,04,23,17,10,1025.13
2013,04,23,17,11,1025.13
2013,04,23,17,12,1025.16
2013,04,23,17,13,1025.20
2013,04,23,17,14,1025.20
2013,04,23,17,15,1025.13
2013,04,23,17,16,1025.16
2013,04,23,17,17,1025.16
2013,04,23,17,18,1025.20
2013,04,23,17,19,1025.19
2013,04,23,17,20,1025.06
2013,04,23,17,21,1025.13
2013,04,23,17,22,1025.09
2013,04,23,17,23,1025.06
2013,04,23,17,24,1024.96
2013,04,23,17,25,1024.99
2013,04,23,17,26,1024.99
2013,04,23,17,27,1024.92
2013,04,23,17,28,1024.96
2013,04,23,17,29,1024.92
2013,04,23,17,30,1024.89
2013,04,23,17,31,1024.82
2013,04,23,17,32,1024.89
2013,04,23,17,33,1024.89
2013,04,23,17,34,1024.89
2013,04,23,17,35,1024.92
2013,04,23,17,36,1024.85
2013,04,23,17,37,1024.72
2013,04,23,17,38,1024.76
2013,04,23,17,39,1024.72
2013,04,23,17,40,1024.72
2013,04,23,17,41,1024.76
2013,04,23,17,42,1024.72
2013,04,23,17,43,1024.76
2013,04,23,17,44,1024.76
2013,04,23,17,45,1024.82
2013,04,23,17,46,1024.76
2013,04,23,17,47,1024.82
2013,04,23,17,48,1024.82
2013,04,23,17,49,1024.82
2013,04,23,17,50,1024.92
2013,04,23,17,51,1024.89
2013,04,23,17,52,1024.92
2013,04,23,17,53,1024.92
2013,04,23,17,54,1024.82
2013,04,23,17,55,1024.89
2013,04,23,17,56,1024.86
2013,04,23,17,57,1024.76
2013,04,23,17,58,1024.82
2013,04,23,17,59,1024.82
2013,04,23,18,00,1024.76
2013,04,23,18,01,1024.72
2013,04,23,18,02,1024.65
2013,04,23,18,03,1024.72
2013,04,23,18,04,1024.69
2013,04,23,18,05,1024.82
2013,04,23,18,06,1024.76
2013,04,23,18,07,1024.72
2013,04,23,18,08,1024.82
2013,04,23,18,09,1024.72
2013,04,23,18,10,1024.72
2013,04,23,18,11,1024.72
2013,04,23,18,12,1024.69
2013,04,23,18,13,1024.72
2013,04,23,18,14,1024.72
2013,04,23,18,15,1024.76
2013,04,23,18,16,1024.79
2013,04,23,18,17,1024.69
2013,04,23,18,18,1024.72
2013,04,23,18,19,1024.72
2013,04,23,18,20,1024.72
2013,04,23,18,21,1024.76
2013,04,23,18,22,1024.72
2013,04,23,18,23,1024.79
2013,04,23,18,24,1024.82
2013,04,23,18,25,1024.79
2013,04,23,18,26,1024.82
2013,04,23,18,27,1024.82
2013,04,23,18,28,1024.79
2013,04,23,18,29,1024.79
2013,04,23,18,30,1024.76
2013,04,23,18,31,1024.69
2013,04,23,18,32,1024.69
2013,04,23,18,33,1024.76
2013,04,23,18,34,1024.76
2013,04,23,18,35,1024.72
2013,04,23,18,36,1024.69
2013,04,23,18,37,1024.62
2013,04,23,18,38,1024.59
2013,04,23,18,39,1024.65
2013,04,23,18,40,1024.59
2013,04,23,18,41,1024.48
2013,04,23,18,42,1024.55
2013,04,23,18,43,1024.48
2013,04,23,18,44,1024.55
2013,04,23,18,45,1024.62
2013,04,23,18,46,1024.55
2013,04,23,18,47,1024.48
2013,04,23,18,48,1024.45
2013,04,23,18,49,1024.48
2013,04,23,18,50,1024.48
2013,04,23,18,51,1024.59
2013,04,23,18,52,1024.48
2013,04,23,18,53,1024.48
2013,04,23,18,54,1024.52
2013,04,23,18,55,1024.52
2013,04,23,18,56,1024.55
2013,04,23,18,57,1024.59
2013,04,23,18,58,1024.52
2013,04,23,18,59,1024.59
2013,04,23,19,00,1024.59
2013,04,23,19,01,1024.59
2013,04,23,19,02,1024.62
2013,04,23,19,03,1024.59
2013,04,23,19,04,1024.62
2013,04,23,19,05,1024.65
2013,04,23,19,06,1024.72
2013,04,23,19,07,1024.76
2013,04,23,19,08,1024.69
2013,04,23,19,09,1024.65
2013,04,23,19,10,1024.55
2013,04,23,19,11,1024.55
2013,04,23,19,12,1024.59
2013,04,23,19,13,1024.65
2013,04,23,19,14,1024.65
2013,04,23,19,15,1024.62
2013,04,23,19,16,1024.55
2013,04,23,19,17,1024.59
2013,04,23,19,18,1024.55
2013,04,23,19,19,1024.55
2013,04,23,19,20,1024.59
2013,04,23,19,21,1024.69
2013,04,23,19,22,1024.69
2013,04,23,19,23,1024.65
2013,04,23,19,24,1024.62
2013,04,23,19,25,1024.59
2013,04,23,19,26,1024.55
2013,04,23,19,27,1024.52
2013,04,23,19,28,1024.59
2013,04,23,19,29,1024.65
2013,04,23,19,30,1024.62
2013,04,23,19,31,1024.62
2013,04,23,19,32,1024.65
2013,04,23,19,33,1024.69
2013,04,23,19,34,1024.65
2013,04,23,19,35,1024.65
2013,04,23,19,36,1024.69
2013,04,23,19,37,1024.76
2013,04,23,19,38,1024.76
2013,04,23,19,39,1024.76
2013,04,23,19,40,1024.72
2013,04,23,19,41,1024.76
2013,04,23,19,42,1024.69
2013,04,23,19,43,1024.65
2013,04,23,19,44,1024.65
2013,04,23,19,45,1024.69
2013,04,23,19,46,1024.65
2013,04,23,19,47,1024.69
2013,04,23,19,48,1024.65
2013,04,23,19,49,1024.72
2013,04,23,19,50,1024.72
2013,04,23,19,51,1024.72
2013,04,23,19,52,1024.72
2013,04,23,19,53,1024.76
2013,04,23,19,54,1024.76
2013,04,23,19,55,1024.76
2013,04,23,19,56,1024.76
2013,04,23,19,57,1024.72
2013,04,23,19,58,1024.72
2013,04,23,19,59,1024.79
2013,04,23,20,00,1024.76
2013,04,23,20,01,1024.76
2013,04,23,20,02,1024.72
2013,04,23,20,03,1024.79
2013,04,23,20,04,1024.79
2013,04,23,20,05,1024.76
2013,04,23,20,06,1024.76
2013,04,23,20,07,1024.76
2013,04,23,20,08,1024.76
2013,04,23,20,09,1024.76
2013,04,23,20,10,1024.82
2013,04,23,20,11,1024.82
2013,04,23,20,12,1024.82
2013,04,23,20,13,1024.82
2013,04,23,20,14,1024.86
2013,04,23,20,15,1024.89
2013,04,23,20,16,1024.86
2013,04,23,20,17,1024.89
2013,04,23,20,18,1024.86
2013,04,23,20,19,1024.89
2013,04,23,20,20,1024.89
2013,04,23,20,21,1024.92
2013,04,23,20,22,1024.89
2013,04,23,20,23,1024.99
2013,04,23,20,24,1024.99
2013,04,23,20,25,1024.99
2013,04,23,20,26,1025.03
2013,04,23,20,27,1025.04
2013,04,23,20,28,1025.16
2013,04,23,20,29,1025.13
2013,04,23,20,30,1025.13
2013,04,23,20,31,1025.03
2013,04,23,20,32,1025.13
2013,04,23,20,33,1025.09
2013,04,23,20,34,1025.16
2013,04,23,20,35,1025.13
2013,04,23,20,36,1025.13
2013,04,23,20,37,1025.16
2013,04,23,20,38,1025.16
2013,04,23,20,39,1025.13
2013,04,23,20,40,1025.20
2013,04,23,20,41,1025.20
2013,04,23,20,42,1025.23
2013,04,23,20,43,1025.20
2013,04,23,20,44,1025.23
2013,04,23,20,45,1025.23
2013,04,23,20,46,1025.30
2013,04,23,20,47,1025.33
2013,04,23,20,48,1025.33
2013,04,23,20,49,1025.37
2013,04,23,20,50,1025.37
2013,04,23,20,51,1025.40
2013,04,23,20,52,1025.47
2013,04,23,20,53,1025.40
2013,04,23,20,54,1025.43
2013,04,23,20,55,1025.44
2013,04,23,20,56,1025.57
2013,04,23,20,57,1025.57
2013,04,23,20,58,1025.57
2013,04,23,20,59,1025.60
2013,04,23,21,00,1025.60
2013,04,23,21,01,1025.57
2013,04,23,21,02,1025.64
2013,04,23,21,03,1025.64
2013,04,23,21,04,1025.60
2013,04,23,21,05,1025.67
2013,04,23,21,06,1025.70
2013,04,23,21,07,1025.67
2013,04,23,21,08,1025.74
2013,04,23,21,09,1025.70
2013,04,23,21,10,1025.74
2013,04,23,21,11,1025.70
2013,04,23,21,12,1025.74
2013,04,23,21,13,1025.70
2013,04,23,21,14,1025.70
2013,04,23,21,15,1025.74
2013,04,23,21,16,1025.70
2013,04,23,21,17,1025.67
2013,04,23,21,18,1025.67
2013,04,23,21,19,1025.70
2013,04,23,21,20,1025.74
2013,04,23,21,21,1025.77
2013,04,23,21,22,1025.77
2013,04,23,21,23,1025.77
2013,04,23,21,24,1025.74
2013,04,23,21,25,1025.74
2013,04,23,21,26,1025.74
2013,04,23,21,27,1025.74
2013,04,23,21,28,1025.74
2013,04,23,21,29,1025.70
2013,04,23,21,30,1025.67
2013,04,23,21,31,1025.67
2013,04,23,21,32,1025.70
2013,04,23,21,33,1025.74
2013,04,23,21,34,1025.70
2013,04,23,21,35,1025.74
2013,04,23,21,36,1025.74
2013,04,23,21,37,1025.74
2013,04,23,21,38,1025.67
2013,04,23,21,39,1025.74
2013,04,23,21,40,1025.77
2013,04,23,21,41,1025.81
2013,04,23,21,42,1025.77
2013,04,23,21,43,1025.77
2013,04,23,21,44,1025.81
2013,04,23,21,45,1025.81
2013,04,23,21,46,1025.81
2013,04,23,21,47,1025.81
2013,04,23,21,48,1025.91
2013,04,23,21,49,1026.01
2013,04,23,21,50,1025.91
2013,04,23,21,51,1025.97
2013,04,23,21,52,1026.01
2013,04,23,21,53,1026.04
2013,04,23,21,54,1025.94
2013,04,23,21,55,1025.97
2013,04,23,21,56,1026.04
2013,04,23,21,57,1026.01
2013,04,23,21,58,1026.01
2013,04,23,21,59,1025.97
2013,04,23,22,00,1025.97
2013,04,23,22,01,1026.04
2013,04,23,22,02,1026.04
2013,04,23,22,03,1025.94
2013,04,23,22,04,1026.01
2013,04,23,22,05,1025.97
2013,04,23,22,06,1026.01
2013,04,23,22,07,1026.04
2013,04,23,22,08,1026.04
2013,04,23,22,09,1026.08
2013,04,23,22,10,1025.94
2013,04,23,22,11,1026.04
2013,04,23,22,12,1026.04
2013,04,23,22,13,1026.08
2013,04,23,22,14,1026.04
2013,04,23,22,15,1026.04
2013,04,23,22,16,1026.04
2013,04,23,22,17,1026.04
2013,04,23,22,18,1026.08
2013,04,23,22,19,1026.04
2013,04,23,22,20,1026.01
2013,04,23,22,21,1025.97
2013,04,23,22,22,1025.97